CW9454 Weather Reports


Display with metric or nautical units.
time (UTC)temp
F
wind
direction
speed
MPH
gust
MPH
rain 1hr
in
rain 24hr
in
rain mn
in
humidity
%
barometer
mb
20260906120051 67 307 0.0 4.0 0.00 0.00 0.00 83 1014.9
20260906115025 67 303 0.0 4.0 0.00 0.00 0.00 83 1014.7
20260906114020 67 321 0.0 2.0 0.00 0.00 0.00 84 1014.6
20260906113014 67 321 0.0 3.0 0.00 0.00 0.00 84 1014.6
20260906112029 67 325 0.0 0.0 0.00 0.00 0.00 84 1014.5
20260906111042 67 325 0.0 2.0 0.00 0.00 0.00 84 1014.4
20260906110029 66 320 1.0 6.0 0.00 0.00 0.00 85 1014.3
20260906105015 66 322 0.0 0.0 0.00 0.00 0.00 85 1014.2
20260906104057 66 322 0.0 0.0 0.00 0.00 0.00 85 1013.9
20260906103031 66 322 0.0 2.0 0.00 0.00 0.00 85 1013.8
20260906102015 66 322 0.0 0.0 0.00 0.00 0.00 85 1013.8
20260906101031 66 322 0.0 0.0 0.00 0.00 0.00 85 1013.5
20260906100020 66 322 0.0 1.0 0.00 0.00 0.00 85 1013.5
20260906095034 66 322 0.0 5.0 0.00 0.00 0.00 85 1013.5
20260906094036 66 344 0.0 0.0 0.00 0.00 0.00 85 1013.3
20260906093023 67 344 0.0 0.0 0.00 0.00 0.00 84 1013.2
20260906092018 67 344 0.0 0.0 0.00 0.00 0.00 84 1013.3
20260906091029 67 344 0.0 1.0 0.00 0.00 0.00 84 1013.0
20260906090016 67 340 0.0 0.0 0.00 0.00 0.00 84 1012.9
20260906085029 67 340 0.0 1.0 0.00 0.00 0.00 84 1012.9
20260906084044 67 341 0.0 1.0 0.00 0.00 0.00 84 1013.0
20260906083017 67 340 0.0 0.0 0.00 0.00 0.00 84 1012.9
20260906082031 67 340 0.0 3.0 0.00 0.00 0.00 84 1013.0
20260906081024 67 349 0.0 0.0 0.00 0.00 0.00 83 1012.8
20260906080030 68 349 0.0 0.0 0.00 0.00 0.00 83 1012.6
20260906075025 68 349 0.0 0.0 0.00 0.00 0.00 83 1012.7
20260906074038 68 349 0.0 0.0 0.00 0.00 0.00 83 1012.5
20260906073031 68 349 0.0 1.0 0.00 0.00 0.00 83 1012.5
20260906072025 68 349 0.0 1.0 0.00 0.00 0.00 83 1012.4
20260906071034 68 349 0.0 0.0 0.00 0.00 0.00 83 1012.4
20260906070021 68 349 0.0 0.0 0.00 0.00 0.00 83 1012.5
20260906065035 68 349 0.0 1.0 0.00 0.00 0.00 83 1012.6
20260906064029 68 349 0.0 0.0 0.00 0.00 0.00 83 1012.7
20260906063041 68 349 0.0 0.0 0.00 0.00 0.00 83 1012.7
20260906062026 68 349 0.0 0.0 0.00 0.00 0.00 84 1012.5
20260906061022 68 349 0.0 0.0 0.00 0.00 0.00 84 1012.5
20260906060058 68 349 0.0 0.0 0.00 0.00 0.00 85 1012.4
20260906055049 67 349 0.0 0.0 0.00 0.00 0.00 85 1012.6
20260906054022 67 346 0.0 0.0 0.00 0.00 0.00 86 1012.7
20260906053031 67 346 0.0 0.0 0.00 0.00 0.00 86 1012.7
20260906052016 67 346 0.0 0.0 0.00 0.00 0.00 86 1012.9
20260906051030 68 346 0.0 0.0 0.00 0.00 0.00 86 1012.6
20260906050018 68 346 0.0 0.0 0.00 0.00 0.00 85 1012.9
20260906045041 68 346 0.0 0.0 0.00 0.00 0.00 85 1013.0
20260906044024 68 346 0.0 0.0 0.00 0.00 0.00 84 1013.0
20260906043019 68 346 0.0 0.0 0.00 0.00 0.00 84 1013.0
20260906042033 68 346 0.0 0.0 0.00 0.00 0.00 83 1013.0
20260906041028 69 346 0.0 0.0 0.00 0.00 0.00 83 1012.9
20260906040015 69 346 0.0 0.0 0.00 0.00 0.00 83 1012.8
20260906035029 69 346 0.0 0.0 0.00 0.00 0.00 82 1012.9
20260906034024 69 346 0.0 0.0 0.00 0.00 0.00 81 1012.9
20260906033040 69 346 0.0 0.0 0.00 0.00 0.00 80 1013.1
20260906032026 70 346 0.0 0.0 0.00 0.00 0.00 80 1013.1
20260906031020 70 346 0.0 0.0 0.00 0.00 0.00 79 1012.9
20260906030038 70 346 0.0 0.0 0.00 0.00 0.00 79 1012.9
20260906025023 71 346 0.0 0.0 0.00 0.00 0.00 78 1012.8
20260906024016 71 346 0.0 0.0 0.00 0.00 0.00 77 1013.0
20260906023031 72 346 0.0 0.0 0.00 0.00 0.00 77 1012.9
20260906022025 72 346 0.0 0.0 0.00 0.00 0.00 76 1012.7
20260906021018 73 346 0.0 0.0 0.00 0.00 0.00 75 1012.8
20260906020025 73 346 0.0 0.0 0.00 0.00 0.00 74 1012.6
20260906015018 73 346 0.0 0.0 0.00 0.00 0.00 74 1012.6
20260906014034 74 346 0.0 0.0 0.00 0.00 0.00 73 1012.3
20260906013019 74 346 0.0 0.0 0.00 0.00 0.00 72 1012.3
20260906012044 75 346 0.0 1.0 0.00 0.00 0.00 71 1012.3
20260906011036 75 346 0.0 0.0 0.00 0.00 0.00 70 1012.3
20260906010025 76 346 0.0 1.0 0.00 0.00 0.00 69 1012.2
20260906005039 76 355 0.0 0.0 0.00 0.00 0.00 67 1012.1
20260906004024 76 355 0.0 0.0 0.00 0.00 0.00 67 1011.9
20260906003020 77 355 0.0 0.0 0.00 0.00 0.00 66 1012.0
20260906002015 77 355 0.0 2.0 0.00 0.00 0.00 65 1011.8
20260906001025 78 333 0.0 0.0 0.00 0.00 0.00 64 1011.6
20260906000013 78 332 0.0 0.0 0.00 0.00 0.00 64 1011.6
20260905235028 78 332 0.0 1.0 0.00 0.00 0.00 63 1011.7
20260905234023 79 332 0.0 5.0 0.00 0.00 0.00 62 1011.4
20260905233037 79 311 0.0 6.0 0.00 0.00 0.00 62 1011.3
20260905232021 80 32 0.0 3.0 0.00 0.00 0.00 63 1011.2
20260905231015 80 355 0.0 3.0 0.00 0.00 0.00 63 1011.1
20260905230022 80 308 0.0 3.0 0.00 0.00 0.00 64 1011.2
20260905225018 80 329 0.0 6.0 0.00 0.00 0.00 62 1011.2
20260905224013 81 328 0.0 3.0 0.00 0.00 0.00 64 1011.0
20260905223028 81 351 0.0 2.0 0.00 0.00 0.00 67 1011.0
20260905222026 81 5 0.0 3.0 0.00 0.00 0.00 67 1010.8
20260905221039 81 13 0.0 0.0 0.00 0.00 0.00 66 1010.8
20260905220027 81 13 0.0 1.0 0.00 0.00 0.00 64 1010.6
20260905215043 81 13 0.0 0.0 0.00 0.00 0.00 67 1010.6
20260905214016 82 13 0.0 0.0 0.00 0.00 0.00 67 1010.5
20260905213031 82 13 0.0 0.0 0.00 0.00 0.00 67 1010.4
20260905212017 82 13 0.0 0.0 0.00 0.00 0.00 67 1010.3
20260905211038 82 13 0.0 0.0 0.00 0.00 0.00 68 1010.2
20260905210016 82 13 0.0 0.0 0.00 0.00 0.00 66 1010.2
20260905205040 82 13 0.0 0.0 0.00 0.00 0.00 64 1010.3
20260905204025 83 13 0.0 0.0 0.00 0.00 0.00 64 1010.4
20260905203018 83 13 0.0 0.0 0.00 0.00 0.00 64 1010.5
20260905202012 83 13 0.0 0.0 0.00 0.00 0.00 65 1010.4
20260905201027 82 13 0.0 0.0 0.00 0.00 0.00 66 1010.4
20260905200014 82 13 0.0 0.0 0.00 0.00 0.00 66 1010.6
20260905195027 82 13 0.0 0.0 0.00 0.00 0.00 65 1010.5
20260905194020 83 13 0.0 0.0 0.00 0.00 0.00 66 1010.6
20260905193034 83 13 0.0 0.0 0.00 0.00 0.00 64 1010.8
20260905192023 83 13 0.0 1.0 0.00 0.00 0.00 64 1010.9
20260905191038 83 13 0.0 2.0 0.00 0.00 0.00 64 1010.9
20260905190045 83 12 0.0 0.0 0.00 0.00 0.00 64 1010.9
20260905185019 82 12 0.0 0.0 0.00 0.00 0.00 65 1011.1
20260905184013 82 13 0.0 1.0 0.00 0.00 0.00 65 1011.5
20260905183029 81 11 0.0 0.0 0.00 0.00 0.00 64 1011.4
20260905182015 81 11 0.0 1.0 0.00 0.00 0.00 64 1011.7
20260905181039 81 355 0.0 0.0 0.00 0.00 0.00 66 1011.7
20260905180026 81 355 0.0 0.0 0.00 0.00 0.00 64 1011.7
20260905175021 81 355 0.0 0.0 0.00 0.00 0.00 66 1011.8
20260905174035 81 355 0.0 0.0 0.00 0.00 0.00 67 1011.8
20260905173021 80 355 0.0 0.0 0.00 0.00 0.00 65 1011.8
20260905172016 81 355 0.0 0.0 0.00 0.00 0.00 66 1011.9
20260905171030 81 355 0.0 2.0 0.00 0.00 0.00 66 1012.1
20260905170016 80 5 0.0 0.0 0.00 0.00 0.00 65 1012.0
20260905165029 80 5 0.0 3.0 0.00 0.00 0.00 68 1011.8
20260905164024 80 328 0.0 0.0 0.00 0.00 0.00 69 1012.0
20260905163039 80 328 0.0 1.0 0.00 0.00 0.00 70 1012.2
20260905162032 80 328 0.0 0.0 0.00 0.00 0.00 70 1012.2
20260905161028 80 328 0.0 0.0 0.00 0.00 0.00 70 1012.4
20260905160014 80 328 0.0 3.0 0.00 0.00 0.00 70 1012.5
20260905155028 81 332 0.0 2.0 0.00 0.00 0.00 68 1012.6
20260905154022 81 332 0.0 0.0 0.00 0.00 0.00 70 1012.6
20260905153036 81 332 0.0 0.0 0.00 0.00 0.00 69 1012.6
20260905152030 81 332 0.0 0.0 0.00 0.00 0.00 70 1012.6
20260905151015 81 325 0.0 4.0 0.00 0.00 0.00 71 1012.6
20260905150018 81 320 0.0 0.0 0.00 0.00 0.00 72 1012.6
20260905145014 80 320 0.0 0.0 0.00 0.00 0.00 73 1012.5
20260905144056 80 320 0.0 0.0 0.00 0.00 0.00 76 1012.4
20260905143049 79 320 0.0 0.0 0.00 0.00 0.00 76 1012.2
20260905142013 79 322 0.0 0.0 0.00 0.00 0.00 79 1012.2
20260905141037 78 322 0.0 0.0 0.00 0.00 0.00 79 1012.2
20260905140015 77 322 0.0 0.0 0.00 0.00 0.00 80 1012.2
20260905135039 77 322 0.0 0.0 0.00 0.00 0.00 80 1012.1
20260905134023 77 322 0.0 0.0 0.00 0.00 0.00 81 1012.1
20260905133017 76 322 0.0 0.0 0.00 0.00 0.00 82 1012.3
20260905132031 76 322 0.0 0.0 0.00 0.00 0.00 81 1012.1
20260905131026 76 322 0.0 0.0 0.00 0.00 0.00 82 1012.0
20260905130032 76 322 0.0 0.0 0.00 0.00 0.00 83 1012.0
20260905125045 76 322 0.0 0.0 0.00 0.00 0.00 84 1011.8
20260905124018 75 322 0.0 2.0 0.00 0.00 0.00 84 1011.9
20260905123014 75 321 0.0 3.0 0.00 0.00 0.00 85 1011.9
20260905122027 75 44 0.0 1.0 0.00 0.00 0.00 86 1011.9
20260905121023 75 71 0.0 5.0 0.00 0.00 0.00 88 1011.9